QPF
0.00 0.00 0.00 0.00 0.00 0.00 0.00 0.00 0.00 0.00 0.00 0.00 0.00 0.00 0.00 0.00 0.00 0.00 0.00 0.00 0.00 0.00 0.00 0.00 0.00 0.00 0.00 0.00 0.00 0.00 0.00 0.00 0.00 0.00 0.00 0.00 0.00 0.00 0.00 0.00 0.00 0.00 0.00 0.00
0.00 0.00 0.00 0.00 0.00 0.00 0.00 0.00 0.00 0.00 0.00 0.00 0.00 0.00 0.00 0.00 0.00 0.00 0.00 0.00 0.00 0.00 0.00 0.00 0.00 0.00 0.00 0.00 0.00 0.00 0.00 0.00 0.00 0.00 0.00 0.00 0.00 0.00 0.00 0.00 0.00 0.00 0.00 0.00
0.01 0.00 0.01 0.01 0.00 0.00 0.00 0.00 0.00 0.00 0.00 0.00 0.00 0.00 0.00 0.00 0.00 0.00 0.00 0.00 0.00 0.00 0.00 0.00 0.00 0.00 0.00 0.00 0.00 0.00 0.00 0.00 0.00 0.00 0.00 0.00 0.00 0.00 0.00 0.00 0.00 0.00 0.00 0.00
0.01 0.01 0.04 0.01 0.00 0.00 0.00 0.00 0.00 0.00 0.00 0.00 0.00 0.00 0.00 0.00 0.00 0.00 0.00 0.00 0.00 0.00 0.00 0.00 0.00 0.00 0.00 0.00 0.00 0.00 0.00 0.00 0.00 0.00 0.00 0.00 0.00 0.00 0.00 0.00 0.00 0.00 0.00 0.00
0.03 0.02 0.01 0.00 0.00 0.00 0.00 0.00 0.00 0.00 0.00 0.00 0.00 0.00 0.00 0.00 0.00 0.00 0.00 0.00 0.00 0.00 0.00 0.00 0.00 0.00 0.00 0.00 0.00 0.00 0.00 0.00 0.00 0.00 0.00 0.00 0.00 0.00 0.00 0.00 0.00 0.00 0.00 0.00
0.04 0.03 0.01 0.00 0.00 0.00 0.00 0.00 0.00 0.00 0.00 0.00 0.00 0.00 0.00 0.00 0.00 0.00 0.00 0.00 0.00 0.00 0.00 0.00 0.00 0.00 0.00 0.00 0.00 0.00 0.00 0.00 0.00 0.00 0.00 0.00 0.00 0.00 0.00 0.00 0.00 0.00 0.00 0.00
0.03 0.02 0.00 0.00 0.00 0.00 0.00 0.00 0.00 0.00 0.00 0.00 0.00 0.00 0.00 0.00 0.00 0.00 0.00 0.00 0.00 0.00 0.00 0.00 0.00 0.00 0.00 0.00 0.00 0.00 0.00 0.00 0.00 0.00 0.00 0.00 0.00 0.00 0.00 0.00 0.00 0.00 0.00 0.00
0.02 0.01 0.00 0.00 0.00 0.00 0.00 0.00 0.00 0.00 0.00 0.00 0.00 0.00 0.00 0.00 0.00 0.00 0.00 0.00 0.00 0.00 0.00 0.00 0.00 0.00 0.00 0.00 0.00 0.00 0.00 0.00 0.00 0.00 0.00 0.00 0.00 0.00 0.00 0.00 0.00 0.00 0.00 0.00
0.01 0.01 0.00 0.00 0.00 0.00 0.00 0.00 0.00 0.00 0.00 0.00 0.00 0.00 0.00 0.00 0.00 0.00 0.00 0.00 0.00 0.00 0.00 0.00 0.00 0.00 0.00 0.00 0.00 0.00 0.00 0.00 0.00 0.00 0.00 0.00 0.00 0.00 0.00 0.00 0.00 0.00 0.00 0.00
0.01 0.01 0.00 0.00 0.00 0.00 0.00 0.00 0.00 0.00 0.00 0.00 0.00 0.00 0.00 0.00 0.00 0.00 0.00 0.00 0.00 0.00 0.00 0.00 0.00 0.00 0.00 0.00 0.00 0.00 0.00 0.00 0.00 0.00 0.00 0.00 0.00 0.00 0.00 0.00 0.00 0.00 0.00 0.00
0.01 0.00 0.00 0.00 0.00 0.00 0.00 0.00 0.00 0.00 0.00 0.00 0.00 0.00 0.00 0.00 0.00 0.00 0.00 0.00 0.00 0.00 0.00 0.00 0.00 0.00 0.00 0.00 0.00 0.00 0.00 0.00 0.00 0.00 0.00 0.00 0.00 0.00 0.00 0.00 0.00 0.00 0.00 0.00
0.00 0.00 0.00 0.00 0.00 0.00 0.00 0.00 0.00 0.00 0.00 0.00 0.00 0.00 0.00 0.00 0.00 0.00 0.00 0.00 0.00 0.00 0.00 0.00 0.00 0.00 0.00 0.00 0.00 0.00 0.00 0.00 0.00 0.00 0.00 0.00 0.00 0.00 0.00 0.00 0.00 0.00 0.00 0.00
0.00 0.00 0.00 0.00 0.00 0.00 0.00 0.00 0.00 0.00 0.00 0.00 0.00 0.00 0.00 0.00 0.00 0.00 0.00 0.00 0.00 0.00 0.00 0.00 0.00 0.00 0.00 0.00 0.00 0.00 0.00 0.00 0.00 0.00 0.00 0.00 0.00 0.00 0.00 0.00 0.00 0.00 0.00 0.00
0.00 0.00 0.00 0.00 0.00 0.00 0.00 0.00 0.00 0.00 0.00 0.00 0.00 0.00 0.00 0.00 0.00 0.00 0.00 0.00 0.00 0.00 0.00 0.00 0.00 0.00 0.00 0.00 0.00 0.00 0.00 0.00 0.00 0.00 0.00 0.00 0.00 0.00 0.00 0.00 0.00 0.00 0.00 0.00
0.00 0.00 0.00 0.00 0.00 0.00 0.00 0.00 0.00 0.00 0.00 0.00 0.00 0.00 0.00 0.00 0.00 0.00 0.00 0.00 0.00 0.00 0.00 0.00 0.00 0.00 0.00 0.00 0.00 0.00 0.00 0.00 0.00 0.00 0.00 0.00 0.00 0.00 0.00 0.00 0.00 0.00 0.00 0.00
0.00 0.00 0.00 0.00 0.00 0.00 0.00 0.00 0.00 0.00 0.00 0.00 0.00 0.00 0.00 0.00 0.00 0.00 0.00 0.00 0.00 0.00 0.00 0.00 0.00 0.00 0.00 0.00 0.00 0.00 0.00 0.00 0.00 0.00 0.00 0.00 0.00 0.00 0.00 0.00 0.00 0.00 0.00 0.00
0.00 0.00 0.00 0.00 0.00 0.00 0.00 0.00 0.00 0.00 0.00 0.00 0.00 0.00 0.00 0.00 0.00 0.00 0.00 0.00 0.00 0.00 0.00 0.00 0.00 0.00 0.00 0.00 0.00 0.00 0.00 0.00 0.00 0.00 0.00 0.00 0.00 0.00 0.00 0.00 0.00 0.00 0.00 0.00
0.00 0.00 0.00 0.00 0.00 0.00 0.00 0.00 0.00 0.00 0.00 0.00 0.00 0.00 0.00 0.00 0.00 0.00 0.00 0.00 0.00 0.00 0.00 0.00 0.00 0.00 0.00 0.00 0.00 0.00 0.00 0.00 0.00 0.00 0.00 0.00 0.00 0.00 0.00 0.00 0.00 0.00 0.00 0.00
0.00 0.00 0.00 0.00 0.00 0.00 0.00 0.00 0.00 0.00 0.00 0.00 0.00 0.00 0.00 0.00 0.00 0.00 0.00 0.00 0.00 0.00 0.00 0.00 0.00 0.00 0.00 0.00 0.00 0.00 0.00 0.00 0.00 0.00 0.00 0.00 0.00 0.00 0.00 0.00 0.00 0.00 0.00 0.00
0.00 0.00 0.00 0.00 0.00 0.00 0.00 0.00 0.00 0.00 0.00 0.00 0.00 0.00 0.00 0.00 0.00 0.00 0.00 0.00 0.00 0.00 0.00 0.00 0.00 0.00 0.00 0.00 0.00 0.00 0.00 0.00 0.00 0.00 0.00 0.00 0.00 0.00 0.00 0.00 0.00 0.00 0.00 0.00
0.00 0.00 0.00 0.00 0.00 0.00 0.00 0.00 0.00 0.00 0.00 0.00 0.00 0.00 0.00 0.00 0.00 0.00 0.00 0.00 0.00 0.00 0.00 0.00 0.00 0.00 0.00 0.00 0.00 0.00 0.00 0.00 0.00 0.00 0.00 0.00 0.00 0.00 0.00 0.00 0.00 0.00 0.00 0.00
0.00 0.00 0.00 0.00 0.00 0.00 0.00 0.00 0.00 0.00 0.00 0.00 0.00 0.00 0.00 0.00 0.00 0.00 0.00 0.00 0.00 0.00 0.00 0.00 0.00 0.00 0.00 0.00 0.00 0.00 0.00 0.00 0.00 0.00 0.00 0.00 0.00 0.00 0.00 0.00 0.00 0.00 0.00 0.00
0.00 0.00 0.00 0.00 0.00 0.00 0.00 0.00 0.00 0.00 0.00 0.00 0.00 0.00 0.00 0.00 0.00 0.00 0.00 0.00 0.00 0.00 0.00 0.00 0.00 0.00 0.00 0.00 0.00 0.00 0.00 0.00 0.00 0.00 0.00 0.00 0.00 0.00 0.00 0.00 0.00 0.00 0.00 0.00
0.00 0.00 0.00 0.00 0.00 0.00 0.00 0.00 0.00 0.00 0.00 0.00 0.00 0.00 0.00 0.01 0.00 0.00 0.00 0.00 0.00 0.00 0.00 0.00 0.00 0.00 0.00 0.00 0.00 0.00 0.00 0.00 0.00 0.00 0.00 0.00 0.00 0.00 0.00 0.01 0.01 0.01 0.01 0.01
0.01 0.01 0.01 0.01 0.01 0.01 0.01 0.01 0.01 0.01 0.01 0.01 0.01 0.01 0.01 0.00 0.00 0.00 0.00 0.00 0.00 0.00 0.00 0.00 0.00 0.00 0.00 0.00 0.00 0.00 0.00 0.00 0.00 0.01 0.01 0.01 0.01 0.01 0.01 0.01 0.01 0.01 0.01 0.01
0.01 0.02 0.02 0.02 0.01 0.01 0.01 0.01 0.01 0.01 0.01 0.01 0.01 0.01 0.01 0.00 0.00 0.00 0.00 0.00 0.00 0.00 0.00 0.00 0.00 0.00 0.00 0.00 0.00 0.00 0.00 0.00 0.00 0.00 0.00 0.01 0.01 0.01 0.01 0.01 0.01 0.01 0.01 0.01
0.02 0.02 0.02 0.02 0.02 0.02 0.01 0.01 0.01 0.01 0.01 0.01 0.01 0.01 0.00 0.00 0.00 0.00 0.00 0.00 0.00 0.00 0.00 0.00 0.00 0.00 0.00 0.00 0.00 0.00 0.00 0.00 0.00 0.00 0.01 0.01 0.01 0.01 0.01 0.01 0.01 0.01 0.01 0.01
MSLP
1002.32 1003.18 1003.96 1004.63 1005.16 1005.54 1005.76 1005.82 1005.75 1005.58 1005.34 1005.09 1004.87 1004.71 1004.65 1004.70 1004.84 1005.08 1005.38 1005.72 1006.08 1006.44 1006.80 1007.16 1007.53 1007.93 1008.36 1008.84 1009.35 1009.91 1010.48 1011.06 1011.64 1012.19 1012.73 1013.24 1013.73 1014.23 1014.72 1015.23 1015.75 1016.29 1016.82 1017.34
1002.00 1002.71 1003.32 1003.81 1004.18 1004.42 1004.54 1004.58 1004.53 1004.43 1004.32 1004.21 1004.14 1004.11 1004.15 1004.25 1004.41 1004.63 1004.88 1005.17 1005.48 1005.82 1006.18 1006.56 1006.98 1007.44 1007.95 1008.50 1009.08 1009.68 1010.28 1010.88 1011.47 1012.02 1012.56 1013.07 1013.57 1014.06 1014.55 1015.05 1015.55 1016.05 1016.55 1017.03
1001.81 1002.37 1002.80 1003.11 1003.30 1003.39 1003.42 1003.40 1003.37 1003.34 1003.33 1003.35 1003.41 1003.52 1003.66 1003.84 1004.04 1004.27 1004.52 1004.78 1005.08 1005.40 1005.77 1006.17 1006.63 1007.14 1007.69 1008.27 1008.88 1009.50 1010.11 1010.71 1011.29 1011.84 1012.37 1012.89 1013.39 1013.89 1014.38 1014.88 1015.36 1015.84 1016.29 1016.71
1001.63 1002.03 1002.29 1002.42 1002.46 1002.42 1002.35 1002.29 1002.27 1002.29 1002.37 1002.51 1002.71 1002.95 1003.21 1003.49 1003.76 1004.04 1004.32 1004.61 1004.92 1005.25 1005.63 1006.05 1006.53 1007.05 1007.61 1008.20 1008.80 1009.41 1010.00 1010.57 1011.13 1011.67 1012.19 1012.70 1013.21 1013.72 1014.22 1014.72 1015.19 1015.64 1016.04 1016.40
1001.27 1001.55 1001.67 1001.67 1001.58 1001.44 1001.31 1001.22 1001.21 1001.28 1001.45 1001.71 1002.04 1002.41 1002.81 1003.21 1003.59 1003.96 1004.31 1004.65 1005.00 1005.36 1005.76 1006.20 1006.67 1007.19 1007.73 1008.29 1008.86 1009.42 1009.96 1010.50 1011.02 1011.53 1012.04 1012.55 1013.06 1013.58 1014.09 1014.57 1015.03 1015.44 1015.79 1016.08
1000.64 1000.82 1000.86 1000.77 1000.61 1000.43 1000.27 1000.18 1000.19 1000.33 1000.59 1000.96 1001.42 1001.93 1002.47 1003.00 1003.51 1003.99 1004.44 1004.86 1005.27 1005.68 1006.10 1006.55 1007.02 1007.51 1008.01 1008.53 1009.03 1009.53 1010.02 1010.50 1010.98 1011.46 1011.95 1012.45 1012.97 1013.48 1013.98 1014.45 1014.88 1015.24 1015.53 1015.75
999.69 999.82 999.82 999.72 999.55 999.37 999.23 999.18 999.25 999.46 999.81 1000.28 1000.86 1001.50 1002.18 1002.85 1003.49 1004.09 1004.65 1005.16 1005.64 1006.10 1006.56 1007.01 1007.47 1007.94 1008.40 1008.86 1009.30 1009.74 1010.17 1010.59 1011.03 1011.47 1011.94 1012.43 1012.93 1013.43 1013.91 1014.36 1014.74 1015.05 1015.27 1015.40
998.48 998.61 998.63 998.56 998.45 998.33 998.26 998.28 998.43 998.72 999.16 999.73 1000.41 1001.16 1001.95 1002.73 1003.49 1004.21 1004.87 1005.47 1006.03 1006.55 1007.03 1007.50 1007.95 1008.39 1008.81 1009.22 1009.61 1009.99 1010.37 1010.76 1011.15 1011.57 1012.01 1012.48 1012.96 1013.43 1013.88 1014.28 1014.61 1014.86 1015.00 1015.05
997.13 997.30 997.39 997.41 997.40 997.38 997.42 997.54 997.78 998.16 998.67 999.32 1000.08 1000.91 1001.78 1002.66 1003.51 1004.31 1005.06 1005.74 1006.35 1006.92 1007.44 1007.92 1008.37 1008.79 1009.19 1009.56 1009.92 1010.26 1010.61 1010.96 1011.34 1011.73 1012.15 1012.59 1013.03 1013.47 1013.87 1014.21 1014.48 1014.65 1014.72 1014.69
995.80 996.05 996.23 996.38 996.49 996.62 996.78 997.02 997.36 997.82 998.41 999.11 999.92 1000.79 1001.71 1002.63 1003.53 1004.39 1005.19 1005.92 1006.59 1007.19 1007.73 1008.22 1008.68 1009.09 1009.48 1009.84 1010.18 1010.52 1010.85 1011.19 1011.55 1011.92 1012.32 1012.72 1013.13 1013.51 1013.85 1014.13 1014.32 1014.42 1014.42 1014.32
994.66 994.99 995.28 995.56 995.83 996.10 996.40 996.76 997.20 997.74 998.38 999.11 999.94 1000.82 1001.75 1002.68 1003.60 1004.47 1005.29 1006.04 1006.73 1007.35 1007.91 1008.42 1008.88 1009.30 1009.68 1010.05 1010.39 1010.73 1011.07 1011.41 1011.76 1012.12 1012.49 1012.86 1013.22 1013.54 1013.81 1014.01 1014.13 1014.16 1014.09 1013.95
993.79 994.19 994.60 995.01 995.42 995.83 996.27 996.75 997.28 997.88 998.56 999.31 1000.14 1001.01 1001.91 1002.83 1003.72 1004.59 1005.40 1006.15 1006.84 1007.46 1008.03 1008.54 1009.01 1009.43 1009.83 1010.20 1010.56 1010.91 1011.26 1011.61 1011.96 1012.31 1012.65 1012.98 1013.28 1013.54 1013.74 1013.87 1013.91 1013.88 1013.76 1013.57
993.19 993.66 994.16 994.69 995.22 995.77 996.33 996.92 997.53 998.20 998.91 999.67 1000.48 1001.33 1002.20 1003.08 1003.94 1004.77 1005.56 1006.30 1006.97 1007.59 1008.15 1008.66 1009.13 1009.56 1009.97 1010.35 1010.72 1011.08 1011.44 1011.79 1012.14 1012.47 1012.78 1013.07 1013.31 1013.50 1013.63 1013.69 1013.67 1013.58 1013.42 1013.21
992.79 993.31 993.89 994.52 995.17 995.83 996.51 997.19 997.89 998.61 999.35 1000.13 1000.93 1001.76 1002.60 1003.44 1004.27 1005.06 1005.82 1006.53 1007.19 1007.79 1008.34 1008.84 1009.30 1009.73 1010.14 1010.53 1010.90 1011.27 1011.62 1011.97 1012.30 1012.61 1012.89 1013.13 1013.32 1013.45 1013.51 1013.51 1013.43 1013.29 1013.10 1012.87
992.49 993.06 993.71 994.42 995.17 995.94 996.71 997.49 998.27 999.05 999.84 1000.64 1001.44 1002.26 1003.08 1003.89 1004.69 1005.46 1006.19 1006.88 1007.51 1008.10 1008.63 1009.11 1009.56 1009.98 1010.37 1010.75 1011.11 1011.47 1011.81 1012.14 1012.45 1012.73 1012.98 1013.17 1013.31 1013.38 1013.39 1013.33 1013.20 1013.03 1012.81 1012.57
992.23 992.84 993.55 994.34 995.17 996.03 996.90 997.77 998.63 999.48 1000.32 1001.15 1001.97 1002.79 1003.61 1004.41 1005.19 1005.94 1006.66 1007.32 1007.94 1008.50 1009.01 1009.48 1009.90 1010.29 1010.66 1011.01 1011.35 1011.68 1011.99 1012.29 1012.57 1012.82 1013.03 1013.18 1013.28 1013.30 1013.27 1013.16 1013.00 1012.79 1012.55 1012.30
991.98 992.64 993.42 994.27 995.19 996.13 997.09 998.04 998.97 999.88 1000.77 1001.65 1002.50 1003.34 1004.16 1004.96 1005.74 1006.48 1007.19 1007.84 1008.44 1008.98 1009.47 1009.91 1010.30 1010.65 1010.98 1011.29 1011.59 1011.87 1012.15 1012.41 1012.65 1012.87 1013.04 1013.16 1013.22 1013.21 1013.14 1013.00 1012.82 1012.59 1012.33 1012.06
991.79 992.52 993.36 994.29 995.28 996.29 997.32 998.34 999.34 1000.31 1001.24 1002.15 1003.03 1003.89 1004.72 1005.52 1006.30 1007.03 1007.73 1008.37 1008.95 1009.47 1009.93 1010.34 1010.69 1011.00 1011.29 1011.55 1011.79 1012.02 1012.25 1012.47 1012.67 1012.84 1012.98 1013.07 1013.10 1013.07 1012.98 1012.83 1012.63 1012.38 1012.11 1011.82
991.80 992.60 993.50 994.49 995.54 996.61 997.69 998.76 999.80 1000.80 1001.77 1002.69 1003.59 1004.45 1005.28 1006.08 1006.85 1007.57 1008.25 1008.87 1009.43 1009.93 1010.36 1010.72 1011.03 1011.30 1011.52 1011.73 1011.91 1012.09 1012.26 1012.42 1012.58 1012.71 1012.82 1012.88 1012.90 1012.86 1012.76 1012.60 1012.39 1012.14 1011.85 1011.56
992.12 992.99 993.95 994.99 996.07 997.18 998.28 999.37 1000.42 1001.43 1002.39 1003.32 1004.20 1005.04 1005.85 1006.63 1007.37 1008.07 1008.72 1009.32 1009.85 1010.31 1010.70 1011.02 1011.29 1011.50 1011.67 1011.81 1011.93 1012.04 1012.16 1012.27 1012.37 1012.47 1012.55 1012.59 1012.59 1012.55 1012.44 1012.28 1012.07 1011.82 1011.52 1011.22
992.84 993.76 994.77 995.83 996.92 998.03 999.13 1000.20 1001.23 1002.21 1003.14 1004.03 1004.88 1005.68 1006.45 1007.18 1007.88 1008.53 1009.14 1009.69 1010.17 1010.59 1010.94 1011.22 1011.43 1011.58 1011.70 1011.78 1011.84 1011.90 1011.95 1012.00 1012.06 1012.12 1012.16 1012.18 1012.17 1012.11 1012.00 1011.84 1011.63 1011.38 1011.08 1010.77
993.97 994.92 995.94 997.00 998.08 999.15 1000.21 1001.23 1002.21 1003.14 1004.01 1004.84 1005.62 1006.36 1007.06 1007.73 1008.36 1008.96 1009.50 1009.99 1010.42 1010.79 1011.08 1011.31 1011.47 1011.57 1011.63 1011.65 1011.66 1011.65 1011.65 1011.65 1011.65 1011.66 1011.67 1011.66 1011.62 1011.55 1011.43 1011.27 1011.06 1010.80 1010.51 1010.20
995.42 996.38 997.38 998.41 999.44 1000.46 1001.45 1002.40 1003.31 1004.16 1004.96 1005.71 1006.41 1007.07 1007.69 1008.28 1008.83 1009.35 1009.82 1010.24 1010.60 1010.90 1011.14 1011.31 1011.42 1011.47 1011.48 1011.45 1011.40 1011.34 1011.28 1011.23 1011.18 1011.13 1011.09 1011.04 1010.97 1010.88 1010.75 1010.57 1010.35 1010.10 1009.80 1009.49
997.04 997.98 998.94 999.91 1000.88 1001.82 1002.74 1003.61 1004.43 1005.20 1005.92 1006.59 1007.20 1007.78 1008.32 1008.81 1009.28 1009.71 1010.10 1010.44 1010.73 1010.96 1011.14 1011.25 1011.31 1011.31 1011.28 1011.20 1011.10 1010.99 1010.88 1010.76 1010.66 1010.56 1010.47 1010.37 1010.26 1010.12 1009.96 1009.77 1009.54 1009.28 1008.98 1008.67
998.67 999.56 1000.47 1001.37 1002.26 1003.13 1003.96 1004.75 1005.50 1006.19 1006.83 1007.42 1007.96 1008.45 1008.91 1009.32 1009.70 1010.03 1010.34 1010.60 1010.81 1010.97 1011.08 1011.14 1011.15 1011.10 1011.02 1010.90 1010.76 1010.60 1010.44 1010.28 1010.12 1009.96 1009.81 1009.65 1009.49 1009.31 1009.11 1008.89 1008.64 1008.36 1008.06 1007.75
1000.15 1000.99 1001.83 1002.66 1003.48 1004.27 1005.03 1005.76 1006.44 1007.07 1007.65 1008.17 1008.64 1009.07 1009.44 1009.77 1010.06 1010.32 1010.53 1010.70 1010.84 1010.92 1010.97 1010.97 1010.92 1010.84 1010.71 1010.56 1010.38 1010.18 1009.98 1009.76 1009.55 1009.34 1009.13 1008.91 1008.69 1008.46 1008.21 1007.95 1007.67 1007.37 1007.06 1006.75
1001.41 1002.19 1002.97 1003.74 1004.50 1005.23 1005.94 1006.61 1007.24 1007.82 1008.35 1008.82 1009.23 1009.59 1009.90 1010.15 1010.36 1010.53 1010.66 1010.74 1010.79 1010.81 1010.78 1010.72 1010.63 1010.50 1010.34 1010.15 1009.93 1009.70 1009.46 1009.20 1008.94 1008.67 1008.40 1008.12 1007.84 1007.55 1007.25 1006.94 1006.63 1006.31 1005.98 1005.66
Thickness
5611 5621 5618 5616 5617 5620 5620 5625 5622 5633 5638 5648 5653 5655 5658 5658 5657 5656 5654 5652 5650 5646 5643 5640 5637 5633 5630 5625 5621 5617 5611 5606 5601 5595 5589 5583 5578 5572 5565 5559 5553 5546 5540 5533
5598 5611 5614 5612 5616 5619 5621 5627 5628 5632 5638 5656 5660 5658 5656 5655 5653 5651 5649 5648 5646 5643 5639 5636 5632 5629 5624 5620 5615 5610 5604 5599 5593 5587 5581 5575 5570 5563 5557 5551 5545 5538 5532 5525
5582 5598 5598 5595 5615 5619 5622 5629 5629 5627 5641 5650 5649 5650 5650 5651 5650 5648 5646 5644 5641 5638 5634 5631 5628 5624 5619 5614 5609 5603 5597 5591 5585 5580 5573 5567 5562 5555 5549 5543 5536 5530 5524 5517
5573 5579 5568 5606 5630 5629 5626 5631 5635 5638 5643 5645 5646 5647 5649 5650 5647 5643 5642 5639 5636 5632 5629 5626 5622 5618 5613 5607 5600 5594 5588 5582 5577 5571 5565 5558 5552 5546 5540 5534 5528 5522 5516 5510
5562 5567 5581 5609 5624 5629 5623 5626 5639 5638 5640 5641 5640 5638 5638 5644 5643 5639 5636 5633 5629 5626 5622 5618 5614 5610 5604 5597 5591 5585 5579 5574 5569 5563 5556 5550 5544 5538 5532 5526 5520 5514 5508 5501
5559 5562 5572 5610 5627 5635 5624 5616 5640 5639 5638 5635 5629 5617 5627 5636 5635 5631 5628 5624 5620 5617 5614 5609 5605 5600 5594 5587 5582 5576 5571 5566 5560 5554 5548 5541 5535 5529 5523 5517 5511 5505 5499 5493
5557 5562 5584 5617 5627 5624 5602 5618 5641 5641 5639 5633 5626 5627 5628 5627 5624 5621 5617 5614 5611 5607 5602 5598 5594 5589 5583 5577 5572 5567 5562 5556 5550 5545 5539 5532 5526 5520 5514 5508 5501 5495 5489 5483
5558 5560 5579 5613 5616 5613 5620 5635 5638 5638 5636 5632 5627 5624 5621 5617 5613 5610 5605 5603 5599 5593 5589 5586 5583 5578 5572 5566 5562 5557 5552 5546 5540 5534 5529 5523 5516 5509 5503 5496 5489 5483 5477 5471
5574 5585 5607 5611 5613 5621 5626 5626 5629 5629 5629 5626 5620 5615 5612 5607 5603 5599 5595 5590 5587 5581 5577 5573 5570 5567 5560 5555 5551 5546 5540 5534 5528 5523 5517 5512 5505 5498 5492 5485 5477 5470 5463 5457
5578 5589 5599 5605 5611 5615 5619 5619 5621 5622 5621 5618 5613 5608 5603 5598 5593 5588 5583 5578 5574 5569 5564 5559 5557 5554 5549 5544 5540 5534 5528 5522 5517 5511 5505 5500 5494 5487 5480 5473 5465 5458 5451 5445
5576 5588 5592 5598 5603 5606 5610 5611 5611 5611 5611 5609 5605 5600 5595 5590 5584 5577 5572 5567 5563 5558 5553 5549 5545 5541 5537 5533 5528 5522 5516 5510 5505 5499 5493 5487 5482 5476 5470 5463 5455 5448 5441 5433
5576 5587 5588 5593 5599 5601 5600 5600 5601 5600 5599 5598 5596 5592 5586 5580 5573 5567 5560 5555 5550 5546 5542 5537 5533 5529 5525 5521 5516 5510 5504 5498 5492 5486 5480 5474 5468 5463 5458 5452 5446 5439 5431 5424
5581 5587 5588 5592 5593 5595 5594 5593 5592 5592 5590 5587 5584 5581 5576 5568 5561 5555 5549 5544 5540 5536 5531 5526 5522 5517 5513 5509 5504 5497 5491 5485 5479 5473 5467 5461 5455 5449 5443 5438 5432 5426 5419 5412
5575 5576 5576 5581 5582 5586 5586 5584 5583 5580 5578 5576 5572 5567 5562 5554 5548 5543 5538 5534 5529 5524 5520 5515 5510 5505 5500 5496 5490 5484 5478 5473 5467 5460 5454 5448 5442 5436 5429 5424 5418 5411 5405 5398
5565 5570 5570 5573 5573 5573 5573 5571 5568 5564 5562 5558 5556 5552 5547 5541 5535 5530 5526 5522 5517 5512 5507 5503 5497 5492 5487 5483 5477 5471 5465 5459 5453 5447 5441 5435 5429 5423 5416 5410 5404 5398 5391 5384
5553 5556 5558 5560 5560 5559 5560 5559 5556 5552 5549 5545 5541 5537 5532 5527 5522 5517 5513 5509 5504 5498 5494 5489 5483 5479 5474 5469 5463 5457 5451 5448 5442 5435 5428 5422 5415 5409 5403 5396 5390 5383 5377 5370
5542 5543 5546 5547 5549 5549 5549 5549 5547 5543 5537 5532 5527 5522 5517 5512 5507 5502 5498 5494 5489 5484 5479 5475 5469 5465 5461 5455 5450 5444 5438 5433 5429 5422 5415 5408 5402 5396 5389 5382 5376 5370 5363 5356
5544 5546 5547 5547 5544 5540 5537 5535 5532 5528 5524 5519 5514 5509 5505 5500 5494 5487 5483 5478 5474 5469 5464 5460 5456 5451 5447 5442 5436 5431 5425 5419 5413 5407 5401 5395 5389 5383 5376 5369 5362 5356 5350 5343
5533 5535 5535 5534 5533 5530 5525 5521 5516 5512 5509 5506 5502 5496 5490 5484 5479 5474 5469 5464 5459 5454 5449 5446 5443 5438 5433 5428 5424 5418 5411 5405 5400 5394 5388 5384 5377 5369 5362 5355 5348 5342 5335 5329
5517 5518 5518 5516 5515 5512 5509 5505 5502 5498 5494 5491 5486 5479 5473 5467 5463 5459 5454 5449 5444 5441 5437 5433 5429 5424 5419 5415 5411 5404 5398 5392 5386 5381 5375 5369 5362 5355 5348 5341 5335 5328 5322 5315
5499 5499 5498 5498 5496 5495 5493 5491 5488 5482 5477 5474 5470 5464 5457 5451 5447 5444 5440 5434 5430 5427 5424 5421 5415 5410 5405 5401 5397 5390 5384 5379 5373 5367 5361 5354 5348 5342 5335 5328 5322 5315 5309 5303
5482 5483 5482 5481 5479 5475 5473 5471 5469 5465 5461 5456 5452 5447 5442 5437 5432 5429 5425 5421 5417 5415 5410 5406 5401 5397 5393 5389 5383 5377 5371 5365 5360 5353 5347 5340 5334 5327 5321 5315 5308 5303 5297 5291
5467 5467 5466 5463 5460 5456 5453 5451 5449 5447 5443 5440 5436 5433 5429 5424 5420 5417 5411 5407 5404 5401 5397 5392 5389 5386 5381 5375 5369 5364 5358 5351 5345 5339 5332 5325 5319 5313 5307 5301 5296 5291 5285 5281
5449 5447 5445 5443 5442 5439 5434 5430 5429 5428 5424 5421 5418 5415 5413 5409 5404 5401 5398 5395 5391 5387 5383 5379 5376 5372 5368 5361 5355 5349 5343 5337 5330 5324 5318 5311 5305 5300 5294 5289 5285 5280 5276 5271
5429 5428 5427 5426 5424 5420 5416 5414 5412 5410 5407 5404 5401 5399 5397 5394 5390 5386 5383 5380 5377 5374 5369 5365 5363 5358 5352 5346 5340 5334 5328 5322 5315 5309 5304 5299 5293 5288 5283 5279 5275 5271 5267 5263
5413 5412 5410 5408 5407 5404 5402 5401 5398 5395 5393 5390 5386 5383 5380 5378 5375 5372 5369 5366 5363 5360 5356 5351 5347 5342 5337 5331 5325 5320 5314 5308 5302 5296 5291 5286 5281 5277 5273 5269 5266 5262 5258 5255
5395 5394 5393 5391 5388 5387 5386 5385 5382 5379 5377 5375 5371 5367 5365 5363 5361 5358 5355 5352 5349 5345 5341 5337 5332 5328 5323 5317 5311 5306 5300 5295 5290 5285 5280 5276 5272 5268 5265 5261 5258 5255 5251 5248